Location: Little Chesterford
(52.0500°N, 0.1833°E)
Time: 17:03:52
(UTC+00:00)

NOSS 3-2 (C) - Pass Details

Date: 26 September 2023
Orbit: 725 x 1486 km, 63.4° (Epoch: 27 November)

Event Time Altitude Azimuth Distance (km) Brightness Sun altitude
Rises 22:08:40 0° 309° (NW) 3,719 7.5 -35.1°
Reaches altitude 10° 22:11:10 10° 315° (NW) 2,871 6.7 -35.3°
Maximum altitude 22:17:56 53° 32° (NNE) 1,444 4.3 -35.8°
Enters shadow 22:17:57 53° 32° (NNE) 1,445 4.3 -35.8°
